Location: Azul
(36.7830°S, 59.8500°W)
Time: 17:31:51
(UTC-03:00)

First-Move - Pass Details

Date: 25 October 2021
Orbit: 575 x 664 km, 97.6° (Epoch: 07 December)

Event Time Altitude Azimuth Distance (km) Brightness Sun altitude
Rises 04:04:42 0° 38° (NE) 2,915 ? -21.9°
Reaches altitude 10° 04:07:03 10° 48° (NE) 2,031 ? -21.5°
Maximum altitude 04:10:57 31° 109° (ESE) 1,148 ? -20.9°
Drops below altitude 10° 04:14:58 10° 171° (S) 2,096 ? -20.2°
Sets 04:17:26 0° 180° (S) 3,026 ? -19.8°
